ANS1918 SABE-SACO

Flight info

Callsign ANS1918
Flight time 1h 48m
Altitude 32000
Route DCT ATOVO UW5 PEDRO ROS TIPLO ASISA DCT
Aircraft CRJ9/M-SG/S

Departure

Time 2026-05-03 21:38
Airport Aeroparque Jorge Newbery (SABE)

Arrival

Time 2026-05-03 23:26
Airport Ingeniero Aeronáutico Ambrosio L.V. Taravella International Airport (SACO)
Time Latitude Longitude Altitude Speed Heading
2026-05-03 20:39 -34.56395 -58.41026 25 ft 0 kts 214°
2026-05-03 20:51 -34.56396 -58.41026 25 ft 0 kts 214°
2026-05-03 21:18 -34.56397 -58.41027 26 ft 1 kts 214°
2026-05-03 21:18 -34.56414 -58.41040 25 ft 4 kts 202°
2026-05-03 21:18 -34.56442 -58.41029 26 ft 6 kts 137°
2026-05-03 21:19 -34.56471 -58.40983 25 ft 8 kts 122°
2026-05-03 21:19 -34.56494 -58.40938 25 ft 10 kts 120°
2026-05-03 21:19 -34.56504 -58.40884 25 ft 7 kts 89°
2026-05-03 21:20 -34.56506 -58.40861 25 ft 0 kts 90°
2026-05-03 21:21 -34.56506 -58.40858 25 ft 1 kts 87°
2026-05-03 21:21 -34.56502 -58.40835 25 ft 4 kts 71°
2026-05-03 21:21 -34.56487 -58.40793 26 ft 5 kts 66°
2026-05-03 21:21 -34.56486 -58.40788 26 ft 0 kts 66°
2026-05-03 21:29 -34.56485 -58.40788 25 ft 0 kts 66°
2026-05-03 21:30 -34.56485 -58.40787 25 ft 0 kts 66°
2026-05-03 21:30 -34.56484 -58.40784 25 ft 2 kts 66°
2026-05-03 21:30 -34.56484 -58.40783 25 ft 0 kts 66°
2026-05-03 21:35 -34.56484 -58.40782 25 ft 0 kts 66°
2026-05-03 21:36 -34.56477 -58.40765 26 ft 4 kts 66°
2026-05-03 21:36 -34.56471 -58.40747 24 ft 0 kts 66°
2026-05-03 21:37 -34.56467 -58.40737 26 ft 3 kts 66°
2026-05-03 21:37 -34.56447 -58.40698 23 ft 7 kts 34°
2026-05-03 21:38 -34.56400 -58.40722 24 ft 27 kts 309°
2026-05-03 21:38 -34.56095 -58.41270 25 ft 107 kts 304°
2026-05-03 21:38 -34.55593 -58.42199 114 ft 146 kts 303°
2026-05-03 21:38 -34.55067 -58.43223 773 ft 144 kts 306°
2026-05-03 21:39 -34.54461 -58.44254 1270 ft 148 kts 323°
2026-05-03 21:39 -34.53569 -58.44527 1947 ft 135 kts 12°
2026-05-03 21:39 -34.52648 -58.44174 2438 ft 141 kts 17°
2026-05-03 21:39 -34.51738 -58.43736 2966 ft 144 kts 18°
2026-05-03 21:40 -34.50808 -58.43233 3471 ft 148 kts 20°
2026-05-03 21:40 -34.49873 -58.42660 3995 ft 152 kts 25°
2026-05-03 21:40 -34.48984 -58.41925 4476 ft 158 kts 30°
2026-05-03 21:40 -34.48082 -58.41107 4943 ft 165 kts 32°
2026-05-03 21:41 -34.47173 -58.40256 5529 ft 166 kts 32°
2026-05-03 21:41 -34.46252 -58.39386 6116 ft 169 kts 32°
2026-05-03 21:41 -34.45300 -58.38513 6621 ft 172 kts 25°
2026-05-03 21:41 -34.44178 -58.38222 6978 ft 169 kts 341°
2026-05-03 21:42 -34.43111 -58.38704 7609 ft 156 kts 332°
2026-05-03 21:42 -34.42050 -58.39260 7903 ft 181 kts 331°
2026-05-03 21:42 -34.40844 -58.39928 8324 ft 196 kts 330°
2026-05-03 21:42 -34.39587 -58.40642 8911 ft 204 kts 330°
2026-05-03 21:43 -34.38298 -58.41395 9639 ft 205 kts 325°
2026-05-03 21:43 -34.37090 -58.42321 10337 ft 206 kts 321°
2026-05-03 21:43 -34.35905 -58.43303 10944 ft 209 kts 321°
2026-05-03 21:43 -34.34697 -58.44324 11549 ft 213 kts 320°
2026-05-03 21:44 -34.33484 -58.45355 12184 ft 216 kts 320°
2026-05-03 21:44 -34.32237 -58.46411 12853 ft 220 kts 320°
2026-05-03 21:44 -34.30969 -58.47481 13514 ft 223 kts 320°
2026-05-03 21:44 -34.30119 -58.48194 13942 ft 225 kts 320°
2026-05-03 21:45 -34.28991 -58.49451 14478 ft 221 kts 297°
2026-05-03 21:45 -34.28201 -58.51059 15087 ft 221 kts 296°
2026-05-03 21:45 -34.27151 -58.53189 15876 ft 224 kts 296°
2026-05-03 21:45 -34.26332 -58.54863 16229 ft 238 kts 296°
2026-05-03 21:46 -34.25482 -58.56622 16606 ft 248 kts 295°
2026-05-03 21:46 -34.24602 -58.58443 17234 ft 251 kts 295°
2026-05-03 21:46 -34.23732 -58.60263 17832 ft 253 kts 295°
2026-05-03 21:46 -34.22852 -58.62123 18427 ft 255 kts 294°
2026-05-03 21:47 -34.21988 -58.63976 18936 ft 257 kts 294°
2026-05-03 21:47 -34.21121 -58.65883 19452 ft 258 kts 293°
2026-05-03 21:47 -34.20274 -58.67791 19963 ft 260 kts 293°
2026-05-03 21:47 -34.19693 -58.69095 20312 ft 262 kts 293°
2026-05-03 21:48 -34.18782 -58.71015 20808 ft 264 kts 295°
2026-05-03 21:48 -34.17822 -58.72907 21289 ft 267 kts 296°
2026-05-03 21:48 -34.16846 -58.74828 21763 ft 269 kts 295°
2026-05-03 21:48 -34.16033 -58.76820 22199 ft 265 kts 280°
2026-05-03 21:49 -34.15617 -58.78989 22686 ft 265 kts 278°
2026-05-03 21:49 -34.15196 -58.81171 23140 ft 267 kts 280°
2026-05-03 21:49 -34.14680 -58.83346 23590 ft 270 kts 283°
2026-05-03 21:49 -34.14085 -58.85493 23970 ft 272 kts 284°
2026-05-03 21:50 -34.13471 -58.87670 24342 ft 274 kts 284°
2026-05-03 21:50 -34.12870 -58.89831 24714 ft 275 kts 283°
2026-05-03 21:50 -34.12269 -58.92017 25074 ft 276 kts 283°
2026-05-03 21:50 -34.11670 -58.94238 25392 ft 277 kts 283°
2026-05-03 21:51 -34.11060 -58.96439 25707 ft 280 kts 285°
2026-05-03 21:51 -34.10239 -58.98612 26008 ft 287 kts 296°
2026-05-03 21:51 -34.09106 -59.00596 26313 ft 291 kts 299°
2026-05-03 21:51 -34.07883 -59.02540 26763 ft 286 kts 300°
2026-05-03 21:52 -34.06659 -59.04436 27043 ft 288 kts 300°
2026-05-03 21:52 -34.05432 -59.06328 27310 ft 290 kts 300°
2026-05-03 21:52 -34.04178 -59.08253 27583 ft 291 kts 300°
2026-05-03 21:52 -34.02921 -59.10171 27853 ft 293 kts 300°
2026-05-03 21:53 -34.01644 -59.12103 28112 ft 294 kts 301°
2026-05-03 21:53 -34.00357 -59.14029 28377 ft 296 kts 301°
2026-05-03 21:53 -33.99060 -59.15940 28628 ft 297 kts 301°
2026-05-03 21:53 -33.97736 -59.17886 28881 ft 298 kts 301°
2026-05-03 21:54 -33.96449 -59.19827 29126 ft 299 kts 300°
2026-05-03 21:54 -33.95354 -59.21498 29338 ft 300 kts 300°
2026-05-03 21:54 -33.94043 -59.23499 29582 ft 301 kts 300°
2026-05-03 21:54 -33.92739 -59.25488 29825 ft 302 kts 300°
2026-05-03 21:55 -33.91430 -59.27485 30060 ft 304 kts 300°
2026-05-03 21:55 -33.90124 -59.29469 30273 ft 305 kts 300°
2026-05-03 21:55 -33.88799 -59.31488 30464 ft 306 kts 300°
2026-05-03 21:55 -33.87485 -59.33485 30649 ft 307 kts 300°
2026-05-03 21:56 -33.86148 -59.35519 30842 ft 308 kts 300°
2026-05-03 21:56 -33.84825 -59.37529 31028 ft 309 kts 300°
2026-05-03 21:56 -33.83483 -59.39566 31211 ft 310 kts 300°
2026-05-03 21:56 -33.82139 -59.41605 31379 ft 311 kts 299°
2026-05-03 21:57 -33.80811 -59.43626 31548 ft 311 kts 299°
2026-05-03 21:57 -33.79455 -59.45678 31711 ft 313 kts 300°
2026-05-03 21:57 -33.76724 -59.49814 31950 ft 318 kts 299°
2026-05-03 21:58 -33.73938 -59.54038 32051 ft 328 kts 300°
2026-05-03 21:58 -33.71053 -59.58402 32077 ft 340 kts 300°
2026-05-03 21:59 -33.68073 -59.62902 32083 ft 353 kts 301°
2026-05-03 21:59 -33.66298 -59.65030 32079 ft 372 kts 316°
2026-05-03 21:59 -33.63971 -59.66566 32090 ft 394 kts 332°
2026-05-03 22:00 -33.61254 -59.67366 32107 ft 410 kts 345°
2026-05-03 22:00 -33.58384 -59.67691 32099 ft 417 kts 348°
2026-05-03 22:00 -33.52529 -59.68070 32080 ft 425 kts 350°
2026-05-03 22:01 -33.46578 -59.68367 32066 ft 431 kts 350°
2026-05-03 22:01 -33.40546 -59.68660 32061 ft 437 kts 350°
2026-05-03 22:02 -33.34549 -59.69462 32055 ft 426 kts 334°
2026-05-03 22:02 -33.31926 -59.70868 32062 ft 414 kts 320°
2026-05-03 22:02 -33.29607 -59.72851 32073 ft 409 kts 315°
2026-05-03 22:03 -33.27110 -59.74596 32063 ft 426 kts 330°
2026-05-03 22:03 -33.24355 -59.75927 32061 ft 423 kts 324°
2026-05-03 22:03 -33.21967 -59.77876 32062 ft 409 kts 308°
2026-05-03 22:03 -33.20287 -59.80507 32083 ft 392 kts 289°
2026-05-03 22:04 -33.19441 -59.83540 32097 ft 383 kts 276°
2026-05-03 22:04 -33.18954 -59.86665 32089 ft 384 kts 274°
2026-05-03 22:04 -33.18202 -59.92965 32053 ft 383 kts 272°
2026-05-03 22:05 -33.17552 -59.99285 32043 ft 383 kts 272°
2026-05-03 22:05 -33.16428 -60.05502 32037 ft 391 kts 284°
2026-05-03 22:06 -33.14290 -60.11516 32032 ft 395 kts 288°
2026-05-03 22:06 -33.12049 -60.17499 32029 ft 394 kts 287°
2026-05-03 22:07 -33.09912 -60.23524 32028 ft 394 kts 287°
2026-05-03 22:07 -33.07792 -60.29514 32026 ft 395 kts 287°
2026-05-03 22:08 -33.05657 -60.35544 32025 ft 395 kts 287°
2026-05-03 22:08 -33.03791 -60.40797 32025 ft 395 kts 287°
2026-05-03 22:09 -33.01644 -60.46836 32026 ft 396 kts 287°
2026-05-03 22:10 -32.98616 -60.55325 32024 ft 396 kts 287°
2026-05-03 22:10 -32.96473 -60.61325 32035 ft 396 kts 287°
2026-05-03 22:11 -32.94311 -60.67368 32033 ft 397 kts 287°
2026-05-03 22:11 -32.92144 -60.73406 32040 ft 397 kts 287°
2026-05-03 22:12 -32.89768 -60.79375 32036 ft 401 kts 291°
2026-05-03 22:12 -32.87097 -60.85158 32036 ft 403 kts 294°
2026-05-03 22:13 -32.84241 -60.90897 32037 ft 403 kts 294°
2026-05-03 22:13 -32.81401 -60.96644 32032 ft 403 kts 294°
2026-05-03 22:14 -32.78551 -61.02395 32030 ft 404 kts 294°
2026-05-03 22:14 -32.75773 -61.07994 32024 ft 404 kts 294°
2026-05-03 22:15 -32.72940 -61.13697 32022 ft 404 kts 294°
2026-05-03 22:15 -32.70080 -61.19449 32017 ft 404 kts 294°
2026-05-03 22:16 -32.67213 -61.25196 32015 ft 404 kts 294°
2026-05-03 22:16 -32.64345 -61.30943 32015 ft 405 kts 294°
2026-05-03 22:17 -32.61473 -61.36685 32017 ft 405 kts 295°
2026-05-03 22:17 -32.58850 -61.41922 32013 ft 405 kts 294°
2026-05-03 22:18 -32.55969 -61.47665 32015 ft 405 kts 295°
2026-05-03 22:18 -32.53083 -61.53409 32013 ft 406 kts 295°
2026-05-03 22:19 -32.50194 -61.59153 32012 ft 406 kts 295°
2026-05-03 22:19 -32.47304 -61.64891 32017 ft 406 kts 295°
2026-05-03 22:20 -32.44405 -61.70635 32013 ft 406 kts 295°
2026-05-03 22:20 -32.41525 -61.76333 32012 ft 406 kts 295°
2026-05-03 22:21 -32.38621 -61.82072 32010 ft 407 kts 295°
2026-05-03 22:21 -32.35711 -61.87817 32010 ft 407 kts 295°
2026-05-03 22:22 -32.32802 -61.93562 32013 ft 407 kts 296°
2026-05-03 22:22 -32.29876 -61.99296 32017 ft 407 kts 295°
2026-05-03 22:23 -32.26957 -62.05039 32017 ft 408 kts 295°
2026-05-03 22:23 -32.24050 -62.10747 32014 ft 408 kts 295°
2026-05-03 22:24 -32.21370 -62.15998 32014 ft 408 kts 296°
2026-05-03 22:24 -32.18436 -62.21741 32012 ft 408 kts 296°
2026-05-03 22:25 -32.15737 -62.27014 32009 ft 409 kts 296°
2026-05-03 22:25 -32.12800 -62.32743 32013 ft 409 kts 296°
2026-05-03 22:26 -32.09848 -62.38489 32013 ft 409 kts 296°
2026-05-03 22:26 -32.06897 -62.44233 32011 ft 409 kts 296°
2026-05-03 22:27 -32.03941 -62.49974 32011 ft 410 kts 296°
2026-05-03 22:27 -32.02484 -62.52800 31635 ft 409 kts 296°
2026-05-03 22:27 -32.01003 -62.55672 31053 ft 409 kts 296°
2026-05-03 22:27 -31.99531 -62.58523 30561 ft 406 kts 296°
2026-05-03 22:28 -31.98069 -62.61354 30140 ft 401 kts 296°
2026-05-03 22:28 -31.96626 -62.64144 29420 ft 397 kts 296°
2026-05-03 22:28 -31.95196 -62.66907 28729 ft 393 kts 296°
2026-05-03 22:28 -31.93782 -62.69635 28058 ft 389 kts 296°
2026-05-03 22:29 -31.92315 -62.72299 27382 ft 390 kts 304°
2026-05-03 22:29 -31.90265 -62.74414 26734 ft 398 kts 321°
2026-05-03 22:29 -31.87904 -62.76054 26140 ft 398 kts 325°
2026-05-03 22:29 -31.85480 -62.77601 25562 ft 395 kts 326°
2026-05-03 22:30 -31.83052 -62.79099 24986 ft 393 kts 327°
2026-05-03 22:30 -31.80637 -62.80566 24442 ft 390 kts 327°
2026-05-03 22:30 -31.78234 -62.82018 23913 ft 387 kts 327°
2026-05-03 22:30 -31.75845 -62.83456 23352 ft 384 kts 327°
2026-05-03 22:31 -31.73481 -62.84886 22784 ft 380 kts 327°
2026-05-03 22:31 -31.71143 -62.86305 22230 ft 377 kts 327°
2026-05-03 22:31 -31.68834 -62.87713 21692 ft 373 kts 327°
2026-05-03 22:31 -31.66533 -62.89124 21171 ft 370 kts 327°
2026-05-03 22:32 -31.64261 -62.90527 20655 ft 367 kts 327°
2026-05-03 22:32 -31.62013 -62.91921 20155 ft 364 kts 327°
2026-05-03 22:32 -31.59782 -62.93310 19673 ft 362 kts 327°
2026-05-03 22:32 -31.57604 -62.94673 19201 ft 359 kts 327°
2026-05-03 22:33 -31.55405 -62.96057 18737 ft 357 kts 327°
2026-05-03 22:33 -31.53228 -62.97434 18270 ft 354 kts 327°
2026-05-03 22:33 -31.51070 -62.98805 17770 ft 352 kts 327°
2026-05-03 22:33 -31.48931 -63.00173 17283 ft 349 kts 327°
2026-05-03 22:34 -31.46812 -63.01540 16810 ft 346 kts 327°
2026-05-03 22:34 -31.44715 -63.02903 16345 ft 344 kts 327°
2026-05-03 22:34 -31.42637 -63.04264 15888 ft 341 kts 327°
2026-05-03 22:34 -31.40575 -63.05624 15432 ft 339 kts 327°
2026-05-03 22:35 -31.38535 -63.06979 14997 ft 336 kts 327°
2026-05-03 22:35 -31.36497 -63.08313 14557 ft 335 kts 331°
2026-05-03 22:35 -31.34250 -63.09064 14114 ft 338 kts 348°
2026-05-03 22:35 -31.31926 -63.09420 13701 ft 336 kts 351°
2026-05-03 22:36 -31.29605 -63.09710 13230 ft 334 kts 352°
2026-05-03 22:36 -31.27329 -63.09969 12788 ft 332 kts 352°
2026-05-03 22:36 -31.25031 -63.10224 12375 ft 338 kts 352°
2026-05-03 22:36 -31.22615 -63.10497 12193 ft 357 kts 352°
2026-05-03 22:37 -31.20109 -63.10785 12111 ft 366 kts 352°
2026-05-03 22:37 -31.17544 -63.11084 12079 ft 373 kts 352°
2026-05-03 22:37 -31.14942 -63.11391 12059 ft 379 kts 352°
2026-05-03 22:37 -31.12306 -63.11702 12042 ft 383 kts 352°
2026-05-03 22:38 -31.09646 -63.12017 12035 ft 383 kts 352°
2026-05-03 22:38 -31.07026 -63.12326 12024 ft 373 kts 352°
2026-05-03 22:38 -31.04486 -63.12623 12012 ft 360 kts 352°
2026-05-03 22:38 -31.02033 -63.12908 12000 ft 348 kts 352°
2026-05-03 22:39 -30.99699 -63.13172 11994 ft 335 kts 352°
2026-05-03 22:39 -30.97414 -63.13428 11988 ft 324 kts 352°
2026-05-03 22:39 -30.95199 -63.13675 11986 ft 317 kts 352°
2026-05-03 22:39 -30.93019 -63.13916 11988 ft 312 kts 352°
2026-05-03 22:40 -30.90860 -63.14154 11994 ft 311 kts 352°
2026-05-03 22:40 -30.88708 -63.14391 12001 ft 311 kts 352°
2026-05-03 22:40 -30.86549 -63.14629 12007 ft 314 kts 352°
2026-05-03 22:40 -30.84362 -63.14895 12007 ft 317 kts 347°
2026-05-03 22:41 -30.82323 -63.15798 12022 ft 315 kts 327°
2026-05-03 22:41 -30.80495 -63.17155 12028 ft 317 kts 324°
2026-05-03 22:41 -30.78667 -63.18612 12032 ft 320 kts 323°
2026-05-03 22:41 -30.76845 -63.20112 12030 ft 323 kts 322°
2026-05-03 22:42 -30.75010 -63.21645 12029 ft 325 kts 322°
2026-05-03 22:42 -30.73166 -63.23198 12032 ft 331 kts 322°
2026-05-03 22:42 -30.71292 -63.24785 12031 ft 335 kts 322°
2026-05-03 22:42 -30.69394 -63.26393 12026 ft 340 kts 322°
2026-05-03 22:43 -30.67479 -63.28019 12024 ft 343 kts 322°
2026-05-03 22:43 -30.65538 -63.29667 12020 ft 347 kts 322°
2026-05-03 22:43 -30.63587 -63.31333 12018 ft 349 kts 320°
2026-05-03 22:43 -30.61928 -63.33368 12016 ft 348 kts 305°
2026-05-03 22:44 -30.60516 -63.35663 12019 ft 350 kts 303°
2026-05-03 22:44 -30.59137 -63.38009 12021 ft 353 kts 302°
2026-05-03 22:44 -30.57790 -63.40351 12020 ft 354 kts 302°
2026-05-03 22:44 -30.56430 -63.42743 12018 ft 356 kts 302°
2026-05-03 22:45 -30.55068 -63.45152 12017 ft 358 kts 302°
2026-05-03 22:45 -30.53703 -63.47572 12017 ft 359 kts 302°
2026-05-03 22:45 -30.52371 -63.50013 12008 ft 359 kts 296°
2026-05-03 22:45 -30.51422 -63.52684 12015 ft 358 kts 289°
2026-05-03 22:46 -30.50614 -63.55367 12013 ft 347 kts 287°
2026-05-03 22:46 -30.49874 -63.57990 12011 ft 338 kts 287°
2026-05-03 22:46 -30.49159 -63.60548 12004 ft 330 kts 287°
2026-05-03 22:46 -30.48465 -63.63046 11998 ft 323 kts 287°
2026-05-03 22:47 -30.47785 -63.65501 12000 ft 316 kts 287°
2026-05-03 22:47 -30.47128 -63.67872 12000 ft 311 kts 287°
2026-05-03 22:47 -30.46475 -63.70240 11999 ft 305 kts 285°
2026-05-03 22:47 -30.46293 -63.72645 11991 ft 299 kts 261°
2026-05-03 22:48 -30.47057 -63.74850 12004 ft 296 kts 234°
2026-05-03 22:48 -30.48589 -63.76409 12024 ft 296 kts 210°
2026-05-03 22:48 -30.50463 -63.77410 12035 ft 297 kts 205°
2026-05-03 22:48 -30.52388 -63.78306 12032 ft 298 kts 203°
2026-05-03 22:49 -30.54332 -63.79156 12033 ft 299 kts 202°
2026-05-03 22:49 -30.55626 -63.79707 12027 ft 300 kts 202°
2026-05-03 22:49 -30.58256 -63.80805 12023 ft 300 kts 202°
2026-05-03 22:50 -30.67897 -63.84788 12015 ft 302 kts 202°
2026-05-03 22:51 -30.69432 -63.85424 12018 ft 302 kts 202°
2026-05-03 22:51 -30.71411 -63.86244 12018 ft 303 kts 202°
2026-05-03 22:51 -30.73388 -63.87066 12019 ft 309 kts 202°
2026-05-03 22:51 -30.75427 -63.87917 12023 ft 315 kts 202°
2026-05-03 22:52 -30.77508 -63.88788 12029 ft 320 kts 202°
2026-05-03 22:52 -30.79625 -63.89677 12032 ft 326 kts 202°
2026-05-03 22:52 -30.81767 -63.90580 12028 ft 330 kts 202°
2026-05-03 22:52 -30.83931 -63.91527 12021 ft 333 kts 207°
2026-05-03 22:53 -30.85791 -63.93096 12014 ft 332 kts 230°
2026-05-03 22:53 -30.86803 -63.94956 12023 ft 331 kts 249°
2026-05-03 22:53 -30.87399 -63.97543 12037 ft 332 kts 259°
2026-05-03 22:53 -30.87819 -64.00182 12038 ft 333 kts 261°
2026-05-03 22:54 -30.88184 -64.02804 12035 ft 333 kts 262°
2026-05-03 22:54 -30.88529 -64.05482 12027 ft 334 kts 262°
2026-05-03 22:54 -30.88858 -64.08156 12022 ft 335 kts 262°
2026-05-03 22:54 -30.89181 -64.10840 12016 ft 335 kts 263°
2026-05-03 22:55 -30.89501 -64.13531 12016 ft 335 kts 263°
2026-05-03 22:55 -30.89818 -64.16216 12011 ft 334 kts 263°
2026-05-03 22:55 -30.90133 -64.18895 12010 ft 334 kts 263°
2026-05-03 22:55 -30.90445 -64.21573 12007 ft 333 kts 263°
2026-05-03 22:56 -30.90757 -64.24245 12008 ft 333 kts 263°
2026-05-03 22:56 -30.91067 -64.26913 12007 ft 333 kts 263°
2026-05-03 22:56 -30.91376 -64.29581 12002 ft 332 kts 263°
2026-05-03 22:56 -30.91679 -64.32212 12004 ft 332 kts 263°
2026-05-03 22:57 -30.91987 -64.34876 11998 ft 332 kts 263°
2026-05-03 22:57 -30.92293 -64.37543 12006 ft 332 kts 263°
2026-05-03 22:57 -30.92597 -64.40203 12005 ft 332 kts 263°
2026-05-03 22:57 -30.92902 -64.42858 11999 ft 331 kts 262°
2026-05-03 22:58 -30.93618 -64.45400 11988 ft 332 kts 240°
2026-05-03 22:58 -30.95148 -64.47413 11991 ft 335 kts 221°
2026-05-03 22:58 -30.96980 -64.49061 11761 ft 328 kts 218°
2026-05-03 22:58 -30.98795 -64.50592 11521 ft 318 kts 217°
2026-05-03 22:59 -31.00588 -64.52059 11269 ft 311 kts 216°
2026-05-03 22:59 -31.02353 -64.53481 11113 ft 305 kts 216°
2026-05-03 22:59 -31.03850 -64.54678 11034 ft 298 kts 216°
2026-05-03 22:59 -31.05542 -64.56025 11010 ft 289 kts 216°
2026-05-03 23:00 -31.07183 -64.57321 10991 ft 281 kts 216°
2026-05-03 23:00 -31.08756 -64.58568 10984 ft 273 kts 216°
2026-05-03 23:00 -31.10306 -64.59801 10979 ft 266 kts 216°
2026-05-03 23:00 -31.11818 -64.60998 10971 ft 260 kts 216°
2026-05-03 23:01 -31.13300 -64.62156 10966 ft 253 kts 213°
2026-05-03 23:01 -31.14947 -64.62806 10974 ft 250 kts 188°
2026-05-03 23:01 -31.16659 -64.62974 10967 ft 244 kts 185°
2026-05-03 23:01 -31.18338 -64.63068 10972 ft 240 kts 184°
2026-05-03 23:02 -31.19997 -64.63129 10983 ft 238 kts 184°
2026-05-03 23:02 -31.21643 -64.63174 10989 ft 236 kts 183°
2026-05-03 23:02 -31.23277 -64.63210 10989 ft 234 kts 183°
2026-05-03 23:02 -31.24904 -64.63243 10983 ft 234 kts 183°
2026-05-03 23:03 -31.26531 -64.63274 10992 ft 234 kts 183°
2026-05-03 23:03 -31.27882 -64.63298 10958 ft 235 kts 183°
2026-05-03 23:03 -31.29490 -64.63325 10925 ft 233 kts 183°
2026-05-03 23:03 -31.31106 -64.63358 10907 ft 231 kts 183°
2026-05-03 23:04 -31.32704 -64.63388 10898 ft 229 kts 183°
2026-05-03 23:04 -31.34309 -64.63419 10678 ft 237 kts 183°
2026-05-03 23:04 -31.35816 -64.63454 10331 ft 248 kts 183°
2026-05-03 23:04 -31.37468 -64.63499 10105 ft 256 kts 183°
2026-05-03 23:05 -31.39294 -64.63561 9432 ft 267 kts 183°
2026-05-03 23:05 -31.41183 -64.63641 8893 ft 276 kts 183°
2026-05-03 23:05 -31.43125 -64.63726 8378 ft 282 kts 183°
2026-05-03 23:05 -31.45095 -64.63578 7856 ft 288 kts 164°
2026-05-03 23:06 -31.46845 -64.62452 7416 ft 289 kts 136°
2026-05-03 23:06 -31.48005 -64.60588 7205 ft 279 kts 117°
2026-05-03 23:06 -31.48883 -64.58606 7100 ft 268 kts 115°
2026-05-03 23:06 -31.49667 -64.56706 7045 ft 257 kts 114°
2026-05-03 23:07 -31.50413 -64.54827 7010 ft 253 kts 114°
2026-05-03 23:07 -31.51142 -64.52954 6989 ft 256 kts 113°
2026-05-03 23:07 -31.51903 -64.50973 7007 ft 274 kts 113°
2026-05-03 23:07 -31.52632 -64.49062 7014 ft 278 kts 113°
2026-05-03 23:08 -31.53419 -64.46995 7010 ft 275 kts 113°
2026-05-03 23:08 -31.54191 -64.44964 7004 ft 271 kts 113°
2026-05-03 23:08 -31.54952 -64.42955 6994 ft 268 kts 113°
2026-05-03 23:08 -31.55705 -64.40972 6996 ft 265 kts 113°
2026-05-03 23:09 -31.56459 -64.38989 6818 ft 269 kts 113°
2026-05-03 23:09 -31.57229 -64.36967 6612 ft 274 kts 113°
2026-05-03 23:09 -31.58002 -64.34942 6419 ft 277 kts 113°
2026-05-03 23:09 -31.58804 -64.32842 6208 ft 280 kts 113°
2026-05-03 23:10 -31.59476 -64.30749 6081 ft 276 kts 98°
2026-05-03 23:10 -31.59528 -64.28536 6042 ft 269 kts 86°
2026-05-03 23:10 -31.59425 -64.26363 6018 ft 264 kts 84°
2026-05-03 23:10 -31.59287 -64.24234 6014 ft 260 kts 84°
2026-05-03 23:11 -31.59132 -64.22143 6000 ft 256 kts 83°
2026-05-03 23:11 -31.58967 -64.20076 5993 ft 252 kts 83°
2026-05-03 23:11 -31.58800 -64.18041 6004 ft 249 kts 83°
2026-05-03 23:11 -31.58631 -64.16027 5999 ft 246 kts 83°
2026-05-03 23:12 -31.58464 -64.14042 6000 ft 243 kts 83°
2026-05-03 23:12 -31.58302 -64.12105 6000 ft 241 kts 83°
2026-05-03 23:12 -31.58138 -64.10163 5992 ft 238 kts 83°
2026-05-03 23:12 -31.57973 -64.08243 6000 ft 236 kts 83°
2026-05-03 23:13 -31.57812 -64.06336 5996 ft 234 kts 83°
2026-05-03 23:13 -31.57652 -64.04445 6000 ft 232 kts 83°
2026-05-03 23:13 -31.57492 -64.02572 6003 ft 230 kts 83°
2026-05-03 23:13 -31.57332 -64.00709 6002 ft 229 kts 83°
2026-05-03 23:14 -31.57175 -63.98860 5998 ft 227 kts 83°
2026-05-03 23:14 -31.57017 -63.97033 6010 ft 226 kts 83°
2026-05-03 23:14 -31.56860 -63.95203 6004 ft 223 kts 83°
2026-05-03 23:14 -31.56708 -63.93423 6007 ft 221 kts 83°
2026-05-03 23:15 -31.56555 -63.91635 6012 ft 220 kts 83°
2026-05-03 23:15 -31.56402 -63.89859 6015 ft 218 kts 83°
2026-05-03 23:15 -31.56247 -63.88089 6015 ft 217 kts 81°
2026-05-03 23:15 -31.55725 -63.86476 6006 ft 212 kts 47°
2026-05-03 23:16 -31.54528 -63.85562 6015 ft 206 kts 11°
2026-05-03 23:16 -31.53121 -63.85305 6046 ft 205 kts
2026-05-03 23:16 -31.51709 -63.85125 6038 ft 200 kts
2026-05-03 23:16 -31.50379 -63.84981 6035 ft 184 kts
2026-05-03 23:17 -31.49119 -63.84860 5787 ft 182 kts
2026-05-03 23:17 -31.47843 -63.84751 5456 ft 185 kts
2026-05-03 23:17 -31.46558 -63.84650 5168 ft 184 kts
2026-05-03 23:17 -31.45308 -63.84556 5025 ft 175 kts
2026-05-03 23:18 -31.44145 -63.84494 4922 ft 163 kts 354°
2026-05-03 23:18 -31.43163 -63.85021 4702 ft 158 kts 307°
2026-05-03 23:18 -31.42833 -63.86230 4430 ft 162 kts 269°
2026-05-03 23:18 -31.42853 -63.87505 4689 ft 152 kts 272°
2026-05-03 23:19 -31.42851 -63.88759 4832 ft 163 kts 271°
2026-05-03 23:19 -31.42883 -63.90133 4923 ft 173 kts 269°
2026-05-03 23:19 -31.42947 -63.91588 4963 ft 185 kts 268°
2026-05-03 23:19 -31.43036 -63.93148 5007 ft 198 kts 268°
2026-05-03 23:20 -31.43154 -63.94806 5044 ft 212 kts 267°
2026-05-03 23:20 -31.43239 -63.95998 4809 ft 231 kts 267°
2026-05-03 23:20 -31.43350 -63.97889 4211 ft 239 kts 269°
2026-05-03 23:20 -31.43417 -63.99791 3908 ft 233 kts 270°
2026-05-03 23:21 -31.43458 -64.01648 3743 ft 222 kts 270°
2026-05-03 23:21 -31.43569 -64.03400 3638 ft 211 kts 256°
2026-05-03 23:21 -31.44229 -64.04860 3586 ft 193 kts 251°
2026-05-03 23:21 -31.44385 -64.06285 3612 ft 168 kts 282°
2026-05-03 23:22 -31.43769 -64.09225 3533 ft 208 kts 273°
2026-05-03 23:22 -31.43758 -64.11002 3635 ft 229 kts 272°
2026-05-03 23:22 -31.43752 -64.12958 3684 ft 247 kts 272°
2026-05-03 23:23 -31.43760 -64.14865 3664 ft 228 kts 271°
2026-05-03 23:23 -31.43723 -64.16653 3614 ft 210 kts 285°
2026-05-03 23:23 -31.43015 -64.17992 3474 ft 191 kts 326°
2026-05-03 23:23 -31.41779 -64.18649 2960 ft 199 kts 341°
2026-05-03 23:24 -31.40493 -64.19218 2721 ft 195 kts 342°
2026-05-03 23:24 -31.39261 -64.19745 2666 ft 176 kts 342°
2026-05-03 23:24 -31.38236 -64.20199 2687 ft 137 kts 342°
2026-05-03 23:24 -31.37429 -64.20562 2436 ft 115 kts 343°
2026-05-03 23:25 -31.36611 -64.20790 2294 ft 129 kts 359°
2026-05-03 23:25 -31.35749 -64.20811 2294 ft 122 kts
2026-05-03 23:25 -31.34891 -64.20785 2151 ft 126 kts
2026-05-03 23:25 -31.34012 -64.20803 1985 ft 125 kts
2026-05-03 23:26 -31.33171 -64.20810 1776 ft 122 kts
2026-05-03 23:26 -31.32376 -64.20821 1616 ft 102 kts
2026-05-03 23:26 -31.31812 -64.20818 1612 ft 62 kts 358°
2026-05-03 23:26 -31.31564 -64.20830 1616 ft 24 kts 359°
2026-05-03 23:27 -31.31465 -64.20917 1612 ft 13 kts 270°
2026-05-03 23:27 -31.31466 -64.20928 1612 ft 0 kts 268°
2026-05-03 23:28 -31.31466 -64.20933 1611 ft 2 kts 268°
2026-05-03 23:28 -31.31466 -64.20968 1611 ft 6 kts 268°
2026-05-03 23:28 -31.31469 -64.21029 1611 ft 6 kts 254°
2026-05-03 23:29 -31.31483 -64.21050 1615 ft 6 kts 218°
2026-05-03 23:29 -31.31545 -64.21086 1621 ft 13 kts 199°
2026-05-03 23:29 -31.31609 -64.21104 1615 ft 0 kts 216°
2026-05-03 23:29 -31.31615 -64.21125 1618 ft 7 kts 268°
2026-05-03 23:30 -31.31613 -64.21160 1617 ft 0 kts 272°